Back to catalog

SL-19 DEB

AliveUNKNOWN
NORAD 23492·DEBRIS·🇷🇺 Russia

Launched Dec 26, 1994 from Baikonur Cosmodrome

Loading…

Next Passes (next 24 hours)

TLE

FreshSource: Space-Track

Epoch: Sep 14, 2026, 13:58 UTC

1 23492U 94085Q   26257.58205634  .00000001  00000-0  11818-2 0  9993
2 23492  64.9481 113.7151 0168767 145.3946 241.3330 11.31185041309452

Track SL-19 DEB in real time with AllMySat

Download on the App Store